| time (UTC) | temp F | wind direction | speed knots | gust knots | rain 1hr in | rain 24hr in | rain mn in | humidity % | barometer mb |
| 20260505140253 | 53 | 171 | 0.9 | 3.5 | 0.00 | 0.00 | 0.00 | 86 | 1014.3 |
| 20260505124720 | 54 | 210 | 0.0 | 0.0 | 0.00 | 0.00 | 0.00 | 82 | 1013.8 |
| 20260505124040 | 54 | 214 | 0.0 | 0.0 | 0.00 | 0.00 | 0.00 | 82 | 1013.8 |
| 20260505123401 | 54 | 328 | 0.0 | 0.9 | 0.00 | 0.00 | 0.00 | 82 | 1013.8 |
| 20260505122721 | 54 | 205 | 0.0 | 0.0 | 0.00 | 0.00 | 0.00 | 81 | 1013.8 |
| 20260505122252 | 54 | 205 | 0.0 | 0.9 | 0.00 | 0.00 | 0.00 | 81 | 1013.8 |
| 20260505121401 | 54 | 321 | 0.0 | 0.9 | 0.00 | 0.00 | 0.00 | 81 | 1013.8 |
| 20260505120721 | 54 | 268 | 0.0 | 0.9 | 0.00 | 0.00 | 0.00 | 81 | 1013.8 |
| 20260505120041 | 54 | 330 | 0.0 | 0.0 | 0.00 | 0.00 | 0.00 | 82 | 1013.8 |
| 20260505115401 | 54 | 308 | 0.0 | 0.9 | 0.00 | 0.00 | 0.00 | 82 | 1013.7 |
| 20260505114721 | 54 | 210 | 0.0 | 0.9 | 0.00 | 0.00 | 0.00 | 81 | 1013.7 |
| 20260505114041 | 54 | 182 | 0.0 | 0.9 | 0.00 | 0.00 | 0.00 | 81 | 1013.7 |
| 20260505113401 | 54 | 315 | 0.0 | 0.9 | 0.00 | 0.00 | 0.00 | 81 | 1013.8 |
| 20260505112721 | 54 | 284 | 0.0 | 0.9 | 0.00 | 0.00 | 0.00 | 82 | 1013.7 |
| 20260505112041 | 54 | 280 | 0.0 | 1.7 | 0.00 | 0.00 | 0.00 | 82 | 1013.6 |
| 20260505111401 | 54 | 281 | 0.9 | 1.7 | 0.00 | 0.00 | 0.00 | 81 | 1013.6 |
| 20260505110721 | 54 | 291 | 0.0 | 0.9 | 0.00 | 0.00 | 0.00 | 82 | 1013.4 |
| 20260505102040 | 53 | 279 | 0.9 | 2.6 | 0.00 | 0.00 | 0.00 | 83 | 1013.2 |
| 20260505101402 | 53 | 288 | 1.7 | 2.6 | 0.00 | 0.00 | 0.00 | 83 | 1013.2 |
| 20260505100721 | 53 | 287 | 1.7 | 2.6 | 0.00 | 0.00 | 0.00 | 84 | 1013.2 |
| 20260505100041 | 53 | 283 | 0.0 | 2.6 | 0.00 | 0.00 | 0.00 | 83 | 1013.1 |
| 20260505095401 | 53 | 299 | 1.7 | 2.6 | 0.00 | 0.00 | 0.00 | 83 | 1013.1 |
| 20260505094932 | 53 | 303 | 0.9 | 2.6 | 0.00 | 0.00 | 0.00 | 83 | 1013.1 |
| 20260505094041 | 53 | 9 | 0.0 | 1.7 | 0.00 | 0.00 | 0.00 | 83 | 1013.1 |
| 20260505093401 | 53 | 314 | 0.9 | 1.7 | 0.00 | 0.00 | 0.00 | 84 | 1013.1 |
| 20260505092721 | 53 | 330 | 0.0 | 0.9 | 0.00 | 0.00 | 0.00 | 84 | 1013.1 |
| 20260505092041 | 53 | 335 | 0.0 | 0.9 | 0.00 | 0.00 | 0.00 | 83 | 1013.0 |
| 20260505091401 | 54 | 274 | 0.0 | 1.7 | 0.00 | 0.00 | 0.00 | 83 | 1012.9 |
| 20260505090721 | 54 | 22 | 0.9 | 1.7 | 0.00 | 0.00 | 0.00 | 84 | 1012.9 |
| 20260505090041 | 54 | 33 | 0.0 | 0.9 | 0.00 | 0.00 | 0.00 | 83 | 1012.8 |
| 20260505085612 | 54 | 356 | 0.9 | 1.7 | 0.00 | 0.00 | 0.00 | 84 | 1012.7 |
| 20260505084722 | 53 | 324 | 0.0 | 0.9 | 0.00 | 0.00 | 0.00 | 84 | 1012.6 |
| 20260505084041 | 54 | 44 | 0.0 | 0.9 | 0.00 | 0.00 | 0.00 | 82 | 1012.6 |
| 20260505083401 | 54 | 346 | 0.0 | 1.7 | 0.00 | 0.00 | 0.00 | 83 | 1012.6 |
| 20260505082721 | 54 | 316 | 0.0 | 1.7 | 0.00 | 0.00 | 0.00 | 81 | 1012.6 |
| 20260505082041 | 54 | 285 | 0.9 | 1.7 | 0.00 | 0.00 | 0.00 | 81 | 1012.6 |
| 20260505081611 | 55 | 311 | 0.0 | 2.6 | 0.00 | 0.00 | 0.00 | 79 | 1012.6 |
| 20260505080721 | 55 | 295 | 1.7 | 2.6 | 0.00 | 0.00 | 0.00 | 79 | 1012.5 |
| 20260505080252 | 55 | 319 | 1.7 | 3.5 | 0.00 | 0.00 | 0.00 | 78 | 1012.4 |
| 20260505075613 | 55 | 286 | 1.7 | 5.2 | 0.00 | 0.00 | 0.00 | 77 | 1012.4 |
| 20260505074933 | 56 | 290 | 3.5 | 5.2 | 0.00 | 0.00 | 0.00 | 76 | 1012.3 |
| 20260505074041 | 56 | 314 | 0.9 | 1.7 | 0.00 | 0.00 | 0.00 | 78 | 1012.2 |
| 20260505073615 | 56 | 294 | 0.0 | 1.7 | 0.00 | 0.00 | 0.00 | 78 | 1012.0 |
| 20260505072721 | 56 | 274 | 0.9 | 1.7 | 0.00 | 0.00 | 0.00 | 76 | 1011.9 |
| 20260505072251 | 56 | 310 | 0.0 | 1.7 | 0.00 | 0.00 | 0.00 | 77 | 1011.9 |
| 20260505071401 | 56 | 297 | 0.0 | 0.9 | 0.00 | 0.00 | 0.00 | 77 | 1011.8 |
| 20260505070721 | 57 | 325 | 0.0 | 0.9 | 0.00 | 0.00 | 0.00 | 76 | 1011.8 |
| 20260505070041 | 57 | 266 | 0.0 | 2.6 | 0.00 | 0.00 | 0.00 | 75 | 1011.7 |
| 20260505065401 | 57 | 308 | 0.0 | 2.6 | 0.00 | 0.00 | 0.00 | 75 | 1011.7 |
| 20260505064721 | 57 | 278 | 0.9 | 3.5 | 0.00 | 0.00 | 0.00 | 74 | 1011.6 |
| 20260505064041 | 57 | 281 | 0.9 | 3.5 | 0.00 | 0.00 | 0.00 | 75 | 1011.5 |
| 20260505063401 | 58 | 268 | 0.0 | 6.1 | 0.00 | 0.00 | 0.00 | 75 | 1011.4 |
| 20260505062721 | 58 | 290 | 0.9 | 6.1 | 0.00 | 0.00 | 0.00 | 73 | 1011.3 |
| 20260505062041 | 58 | 266 | 0.0 | 2.6 | 0.00 | 0.00 | 0.00 | 74 | 1011.2 |
| 20260505061401 | 58 | 279 | 0.0 | 3.5 | 0.00 | 0.00 | 0.00 | 74 | 1011.1 |
| 20260505060721 | 59 | 287 | 1.7 | 3.5 | 0.00 | 0.00 | 0.00 | 73 | 1011.0 |
| 20260505060041 | 59 | 267 | 0.9 | 4.3 | 0.00 | 0.00 | 0.00 | 72 | 1010.9 |
| 20260505055401 | 59 | 282 | 0.9 | 4.3 | 0.00 | 0.00 | 0.00 | 72 | 1010.9 |
| 20260505054721 | 59 | 282 | 0.9 | 4.3 | 0.00 | 0.00 | 0.00 | 72 | 1010.9 |
| 20260505054041 | 60 | 286 | 1.7 | 4.3 | 0.00 | 0.00 | 0.00 | 71 | 1010.8 |
| 20260505053401 | 60 | 306 | 2.6 | 4.3 | 0.00 | 0.00 | 0.00 | 70 | 1010.9 |
| 20260505052720 | 60 | 290 | 0.9 | 5.2 | 0.00 | 0.00 | 0.00 | 70 | 1010.7 |
| 20260505052252 | 61 | 285 | 2.6 | 5.2 | 0.00 | 0.00 | 0.00 | 69 | 1010.6 |
| 20260505051613 | 61 | 281 | 0.9 | 3.5 | 0.00 | 0.00 | 0.00 | 69 | 1010.6 |
| 20260505050934 | 62 | 263 | 0.9 | 6.1 | 0.00 | 0.00 | 0.00 | 68 | 1010.5 |
| 20260505041401 | 66 | 269 | 0.9 | 1.7 | 0.00 | 0.00 | 0.00 | 61 | 1010.0 |
| 20260505040721 | 66 | 245 | 0.9 | 4.3 | 0.00 | 0.00 | 0.00 | 60 | 1009.9 |
| 20260505040041 | 67 | 229 | 0.0 | 5.2 | 0.00 | 0.00 | 0.00 | 60 | 1009.8 |
| 20260505035611 | 67 | 259 | 0.9 | 4.3 | 0.00 | 0.00 | 0.00 | 61 | 1009.7 |
| 20260505034721 | 68 | 250 | 0.9 | 1.7 | 0.00 | 0.00 | 0.00 | 60 | 1009.6 |
| 20260505034041 | 68 | 231 | 0.0 | 4.3 | 0.00 | 0.00 | 0.00 | 60 | 1009.5 |
| 20260505033401 | 68 | 194 | 0.9 | 1.7 | 0.00 | 0.00 | 0.00 | 60 | 1009.4 |
| 20260505032722 | 69 | 206 | 0.9 | 1.7 | 0.00 | 0.00 | 0.00 | 59 | 1009.3 |
| 20260505032041 | 69 | 203 | 0.9 | 3.5 | 0.00 | 0.00 | 0.00 | 58 | 1009.2 |
| 20260505031402 | 70 | 200 | 0.9 | 3.5 | 0.00 | 0.00 | 0.00 | 57 | 1009.1 |
| 20260505030721 | 70 | 182 | 0.9 | 2.6 | 0.00 | 0.00 | 0.00 | 56 | 1009.1 |
| 20260505030040 | 71 | 202 | 0.9 | 3.5 | 0.00 | 0.00 | 0.00 | 54 | 1009.0 |
| 20260505025400 | 71 | 174 | 0.9 | 4.3 | 0.00 | 0.00 | 0.00 | 53 | 1009.0 |
| 20260505024721 | 71 | 178 | 1.7 | 4.3 | 0.00 | 0.00 | 0.00 | 53 | 1008.9 |
| 20260505024041 | 72 | 167 | 1.7 | 3.5 | 0.00 | 0.00 | 0.00 | 51 | 1008.9 |
| 20260505023613 | 72 | 251 | 0.0 | 3.5 | 0.00 | 0.00 | 0.00 | 50 | 1008.8 |
| 20260505022721 | 72 | 202 | 0.9 | 3.5 | 0.00 | 0.00 | 0.00 | 50 | 1008.9 |
| 20260505022042 | 73 | 160 | 0.9 | 2.6 | 0.00 | 0.00 | 0.00 | 51 | 1008.8 |
| 20260505021400 | 73 | 171 | 0.9 | 2.6 | 0.00 | 0.00 | 0.00 | 52 | 1008.8 |
| 20260505020721 | 73 | 156 | 0.0 | 3.5 | 0.00 | 0.00 | 0.00 | 53 | 1008.8 |
| 20260505020041 | 73 | 166 | 1.7 | 3.5 | 0.00 | 0.00 | 0.00 | 53 | 1008.8 |
| 20260505015401 | 73 | 159 | 0.9 | 2.6 | 0.00 | 0.00 | 0.00 | 53 | 1008.8 |
| 20260505014721 | 74 | 173 | 0.9 | 2.6 | 0.00 | 0.00 | 0.00 | 52 | 1008.7 |
| 20260505014041 | 74 | 179 | 1.7 | 7.8 | 0.00 | 0.00 | 0.00 | 52 | 1008.8 |
| 20260505013401 | 73 | 171 | 3.5 | 7.8 | 0.00 | 0.00 | 0.00 | 53 | 1008.7 |
| 20260505012721 | 74 | 150 | 2.6 | 7.0 | 0.00 | 0.00 | 0.00 | 52 | 1008.7 |
| 20260505012041 | 73 | 180 | 1.7 | 7.0 | 0.00 | 0.00 | 0.00 | 53 | 1008.8 |
| 20260505011401 | 74 | 196 | 2.6 | 8.7 | 0.00 | 0.00 | 0.00 | 52 | 1008.8 |
| 20260505010721 | 74 | 180 | 1.7 | 8.7 | 0.00 | 0.00 | 0.00 | 52 | 1008.8 |
| 20260505010042 | 74 | 144 | 2.6 | 7.0 | 0.00 | 0.00 | 0.00 | 50 | 1008.9 |
| 20260505005401 | 73 | 179 | 2.6 | 6.1 | 0.00 | 0.00 | 0.00 | 52 | 1009.0 |
| 20260505004933 | 74 | 182 | 1.7 | 6.1 | 0.00 | 0.00 | 0.00 | 51 | 1009.1 |
| 20260505004041 | 75 | 200 | 0.0 | 7.8 | 0.00 | 0.00 | 0.00 | 47 | 1009.1 |
| 20260505003400 | 74 | 178 | 2.6 | 7.8 | 0.00 | 0.00 | 0.00 | 50 | 1009.0 |
| 20260505002720 | 75 | 194 | 1.7 | 6.1 | 0.00 | 0.00 | 0.00 | 47 | 1009.0 |
| 20260505002041 | 74 | 199 | 2.6 | 6.1 | 0.00 | 0.00 | 0.00 | 48 | 1008.9 |
| 20260505001401 | 75 | 182 | 0.9 | 9.6 | 0.00 | 0.00 | 0.00 | 47 | 1008.9 |
| 20260505000722 | 74 | 163 | 2.6 | 9.6 | 0.00 | 0.00 | 0.00 | 49 | 1009.0 |
| 20260505000042 | 74 | 173 | 2.6 | 5.2 | 0.00 | 0.00 | 0.00 | 47 | 1009.2 |
| 20260504235400 | 75 | 173 | 1.7 | 6.1 | 0.00 | 0.00 | 0.00 | 47 | 1009.2 |
| 20260504234721 | 74 | 172 | 2.6 | 6.1 | 0.00 | 0.00 | 0.00 | 47 | 1009.2 |
| 20260504234041 | 75 | 184 | 1.7 | 5.2 | 0.00 | 0.00 | 0.00 | 46 | 1009.2 |
| 20260504233401 | 75 | 184 | 1.7 | 8.7 | 0.00 | 0.00 | 0.00 | 46 | 1009.3 |
| 20260504232721 | 74 | 170 | 3.5 | 8.7 | 0.00 | 0.00 | 0.00 | 48 | 1009.3 |
| 20260504232042 | 75 | 168 | 1.7 | 5.2 | 0.00 | 0.00 | 0.00 | 45 | 1009.3 |
| 20260504231401 | 75 | 188 | 1.7 | 11.3 | 0.00 | 0.00 | 0.00 | 45 | 1009.4 |
| 20260504230721 | 73 | 164 | 4.3 | 11.3 | 0.00 | 0.00 | 0.00 | 48 | 1009.5 |
| 20260504230041 | 75 | 258 | 0.9 | 5.2 | 0.00 | 0.00 | 0.00 | 44 | 1009.5 |
| 20260504225401 | 75 | 207 | 0.9 | 4.3 | 0.00 | 0.00 | 0.00 | 45 | 1009.6 |
| 20260504224721 | 75 | 314 | 1.7 | 3.5 | 0.00 | 0.00 | 0.00 | 45 | 1009.7 |
| 20260504224041 | 75 | 209 | 0.9 | 3.5 | 0.00 | 0.00 | 0.00 | 44 | 1009.8 |
| 20260504223401 | 73 | 200 | 0.9 | 3.5 | 0.00 | 0.00 | 0.00 | 46 | 1009.9 |
| 20260504222932 | 73 | 176 | 1.7 | 5.2 | 0.00 | 0.00 | 0.00 | 45 | 1010.0 |
| 20260504222042 | 73 | 176 | 1.7 | 5.2 | 0.00 | 0.00 | 0.00 | 46 | 1010.0 |
| 20260504221400 | 72 | 178 | 1.7 | 5.2 | 0.00 | 0.00 | 0.00 | 46 | 1010.1 |
| 20260504220720 | 71 | 142 | 1.7 | 6.1 | 0.00 | 0.00 | 0.00 | 47 | 1010.3 |
| 20260504220041 | 72 | 171 | 1.7 | 6.1 | 0.00 | 0.00 | 0.00 | 46 | 1010.4 |
| 20260504215401 | 71 | 175 | 1.7 | 6.1 | 0.00 | 0.00 | 0.00 | 47 | 1010.4 |
| 20260504214721 | 70 | 133 | 1.7 | 5.2 | 0.00 | 0.00 | 0.00 | 47 | 1010.4 |
| 20260504214041 | 71 | 162 | 1.7 | 6.1 | 0.00 | 0.00 | 0.00 | 46 | 1010.4 |
| 20260504213401 | 71 | 139 | 1.7 | 7.0 | 0.00 | 0.00 | 0.00 | 46 | 1010.5 |
| 20260504212721 | 69 | 115 | 1.7 | 7.0 | 0.00 | 0.00 | 0.00 | 47 | 1010.6 |
| 20260504212041 | 72 | 247 | 0.9 | 5.2 | 0.00 | 0.00 | 0.00 | 46 | 1010.7 |
| 20260504211401 | 70 | 196 | 0.9 | 7.0 | 0.00 | 0.00 | 0.00 | 48 | 1010.9 |
| 20260504210721 | 70 | 196 | 1.7 | 7.0 | 0.00 | 0.00 | 0.00 | 48 | 1011.1 |
| 20260504210041 | 70 | 100 | 1.7 | 5.2 | 0.00 | 0.00 | 0.00 | 46 | 1011.1 |
| 20260504205402 | 70 | 159 | 2.6 | 6.1 | 0.00 | 0.00 | 0.00 | 48 | 1011.2 |
| 20260504204931 | 70 | 203 | 1.7 | 6.1 | 0.00 | 0.00 | 0.00 | 48 | 1011.3 |
| 20260504204041 | 69 | 340 | 0.9 | 6.1 | 0.00 | 0.00 | 0.00 | 48 | 1011.4 |
| 20260504203401 | 68 | 147 | 2.6 | 6.1 | 0.00 | 0.00 | 0.00 | 51 | 1011.5 |
| 20260504202933 | 68 | 194 | 1.7 | 6.1 | 0.00 | 0.00 | 0.00 | 50 | 1011.6 |
| 20260504202041 | 67 | 152 | 1.7 | 7.0 | 0.00 | 0.00 | 0.00 | 52 | 1011.6 |
| 20260504201401 | 66 | 123 | 0.9 | 5.2 | 0.00 | 0.00 | 0.00 | 51 | 1011.7 |
| 20260504200721 | 65 | 183 | 1.7 | 7.0 | 0.00 | 0.00 | 0.00 | 55 | 1011.7 |
| 20260504200041 | 66 | 145 | 3.5 | 6.1 | 0.00 | 0.00 | 0.00 | 52 | 1011.8 |
| 20260504195401 | 66 | 107 | 1.7 | 5.2 | 0.00 | 0.00 | 0.00 | 51 | 1011.8 |
| 20260504194720 | 66 | 69 | 0.9 | 5.2 | 0.00 | 0.00 | 0.00 | 53 | 1011.8 |
| 20260504194041 | 65 | 53 | 1.7 | 5.2 | 0.00 | 0.00 | 0.00 | 52 | 1011.9 |
| 20260504193401 | 63 | 171 | 3.5 | 6.1 | 0.00 | 0.00 | 0.00 | 56 | 1011.9 |
| 20260504192722 | 64 | 153 | 1.7 | 6.1 | 0.00 | 0.00 | 0.00 | 55 | 1011.9 |
| 20260504192041 | 64 | 54 | 2.6 | 6.1 | 0.00 | 0.00 | 0.00 | 54 | 1011.9 |
| 20260504191615 | 63 | 153 | 1.7 | 6.1 | 0.00 | 0.00 | 0.00 | 58 | 1012.0 |
| 20260504190721 | 62 | 172 | 3.5 | 6.1 | 0.00 | 0.00 | 0.00 | 61 | 1012.0 |
| 20260504190041 | 62 | 162 | 0.9 | 5.2 | 0.00 | 0.00 | 0.00 | 60 | 1012.0 |
| 20260504185401 | 62 | 333 | 2.6 | 3.5 | 0.00 | 0.00 | 0.00 | 60 | 1012.1 |
| 20260504184951 | 62 | 329 | 2.6 | 6.1 | 0.00 | 0.00 | 0.00 | 61 | 1012.1 |
| 20260504184311 | 62 | 122 | 0.9 | 6.1 | 0.00 | 0.00 | 0.00 | 63 | 1012.3 |
| 20260504183631 | 61 | 292 | 0.9 | 5.2 | 0.00 | 0.00 | 0.00 | 63 | 1012.4 |
| 20260504182951 | 60 | 343 | 2.6 | 5.2 | 0.00 | 0.00 | 0.00 | 66 | 1012.2 |
| 20260504182311 | 61 | 151 | 0.9 | 6.1 | 0.00 | 0.00 | 0.00 | 63 | 1012.0 |
| 20260504181631 | 61 | 286 | 0.0 | 2.6 | 0.00 | 0.00 | 0.00 | 65 | 1012.0 |
| 20260504180951 | 60 | 195 | 0.9 | 5.2 | 0.00 | 0.00 | 0.00 | 65 | 1012.1 |
| 20260504180311 | 60 | 110 | 2.6 | 5.2 | 0.00 | 0.00 | 0.00 | 66 | 1012.3 |
| 20260504175631 | 59 | 138 | 2.6 | 4.3 | 0.00 | 0.00 | 0.00 | 66 | 1012.3 |
| 20260504174952 | 60 | 170 | 0.9 | 3.5 | 0.00 | 0.00 | 0.00 | 67 | 1012.3 |
| 20260504174311 | 60 | 170 | 0.9 | 3.5 | 0.00 | 0.00 | 0.00 | 66 | 1012.4 |
| 20260504173843 | 60 | 204 | 0.0 | 1.7 | 0.00 | 0.00 | 0.00 | 67 | 1012.4 |
| 20260504172951 | 59 | 99 | 0.9 | 5.2 | 0.00 | 0.00 | 0.00 | 69 | 1012.4 |
| 20260504172310 | 58 | 173 | 1.7 | 4.3 | 0.00 | 0.00 | 0.00 | 70 | 1012.4 |
| 20260504171630 | 58 | 183 | 1.7 | 5.2 | 0.00 | 0.00 | 0.00 | 71 | 1012.3 |
| 20260504171205 | 58 | 141 | 3.5 | 5.2 | 0.00 | 0.00 | 0.00 | 69 | 1012.3 |
| 20260504170311 | 58 | 238 | 0.9 | 6.1 | 0.00 | 0.00 | 0.00 | 71 | 1012.2 |
| 20260504160312 | 58 | 186 | 0.9 | 4.3 | 0.00 | 0.00 | 0.00 | 71 | 1012.3 |
| 20260504150951 | 58 | 189 | 0.0 | 3.5 | 0.00 | 0.00 | 0.00 | 72 | 1011.7 |
| 20260504150311 | 57 | 126 | 1.7 | 3.5 | 0.00 | 0.00 | 0.00 | 72 | 1011.7 |